User: anonymous
Location: Unspecified
(0.0000°N, 0.0000°E)
Time: 13:28:41
(UTC+02:00)
Language:

Gurwin Techsat 1B - Orbit

View from above orbital plane
View from above orbital plane
View from above satellite
View from above satellite

Ground track
Ground track

The orbit data is extracted from the following two-line orbital elements,

1 25397U 98043D   14211.81179808  .00000034  00000-0  33330-4 0  4056
2 25397 098.4719 168.1805 0001867 143.8698 273.9590 14.23452196834070
Epoch (UTC): 30 July 2014 19:28:59
Eccentricity: 0.0001867
inclination: 98.4719°
perigee height: 812 km
apogee height: 815 km
right ascension of ascending node: 168.1805°
argument of perigee: 143.8698°
revolutions per day: 14.23452196
mean anomaly at epoch: 273.9590°
orbit number at epoch: 83407

The dashed part of the orbit path shows where the satellite is in the earth's shadow,  

DLR